Location: Unspecified
(41.5000°N, 0.0000°E)
Time: 22:46:01
(UTC+00:00)

Courier 1B - All Passes

Search period start: 17 June 2019 00:00
Search period end: 27 June 2019 00:00
Orbit: 963 x 1209 km, 28.3° (Epoch: 17 June)

Date Brightness Start Highest point End Pass type
(mag) Time Alt. Az. Time Alt. Az. Time Alt. Az.
17 Jun - 01:47:02 10° WSW 01:51:06 15° SSW 01:55:07 10° S night (unlit)
17 Jun - 19:12:59 10° SSW 19:17:29 17° SSE 19:22:06 10° ESE daylight
17 Jun - 21:04:23 10° SW 21:10:42 28° S 21:17:10 10° ESE visible
17 Jun - 22:57:40 10° WSW 23:04:10 29° S 23:10:41 10° SE visible
18 Jun - 00:52:24 10° WSW 00:57:29 19° SSW 01:02:31 10° SSE night (unlit)
18 Jun - 18:20:46 10° S 18:23:55 13° SSE 18:27:08 10° SE daylight
18 Jun - 20:11:01 10° SW 20:17:00 26° SSE 20:23:10 10° ESE visible
18 Jun - 22:03:54 10° WSW 22:10:26 30° S 22:17:03 10° SE visible
18 Jun - 23:58:06 10° WSW 00:03:49 22° SSW 00:09:31 10° SSE visible
19 Jun - 19:17:50 10° SSW 19:23:21 23° SSE 19:29:02 10° ESE daylight
19 Jun - 21:10:15 10° SW 21:16:41 30° S 21:23:18 10° ESE visible
19 Jun - 23:04:03 10° WSW 23:10:07 25° SSW 23:16:14 10° SE visible
20 Jun - 01:00:18 10° SW 01:03:17 12° SSW 01:06:16 10° S night (unlit)
20 Jun - 18:24:55 10° SSW 18:29:44 19° SSE 18:34:43 10° ESE daylight
20 Jun - 20:16:44 10° SW 20:22:58 29° S 20:29:25 10° ESE visible
20 Jun - 22:10:09 10° WSW 22:16:24 28° S 22:22:46 10° SE visible
21 Jun - 00:05:16 10° WSW 00:09:40 16° SSW 00:14:05 10° SSE visible
21 Jun - 17:32:22 10° S 17:36:11 15° SSE 17:40:06 10° ESE daylight
21 Jun - 19:23:20 10° SW 19:29:17 27° S 19:35:28 10° ESE daylight
21 Jun - 21:16:23 10° WSW 21:22:41 29° S 21:29:09 10° SE visible
21 Jun - 23:10:50 10° WSW 23:16:01 19° SSW 23:21:15 10° SSE visible
22 Jun - 16:40:43 10° S 16:42:41 11° SSE 16:44:39 10° SE daylight
22 Jun - 18:30:07 10° SW 18:35:39 24° SSE 18:41:25 10° ESE daylight
22 Jun - 20:22:45 10° WSW 20:28:58 30° S 20:35:27 10° SE visible
22 Jun - 22:16:42 10° WSW 22:22:21 23° SSW 22:28:06 10° SSE visible
23 Jun - 17:37:05 10° SSW 17:42:04 21° SSE 17:47:14 10° ESE daylight
23 Jun - 19:29:13 10° SW 19:35:17 29° S 19:41:37 10° ESE daylight
23 Jun - 21:22:47 10° WSW 21:28:39 25° SSW 21:34:43 10° SE visible
23 Jun - 23:18:36 10° SW 23:21:51 13° SSW 23:25:10 10° S visible
24 Jun - 16:44:20 10° SSW 16:48:31 17° SSE 16:52:51 10° ESE daylight
24 Jun - 18:35:49 10° SW 18:41:37 27° S 18:47:43 10° ESE daylight
24 Jun - 20:29:01 10° WSW 20:34:58 27° S 20:41:10 10° SE visible
24 Jun - 22:23:51 10° WSW 22:28:14 16° SSW 22:32:42 10° SSE visible
25 Jun - 15:52:03 10° S 15:55:02 13° SSE 15:58:03 10° SE daylight
25 Jun - 17:42:32 10° SW 17:48:01 25° S 17:53:45 10° ESE daylight
25 Jun - 19:35:22 10° WSW 19:41:18 28° S 19:47:30 10° SE daylight
25 Jun - 21:29:35 10° WSW 21:34:36 19° SSW 21:39:45 10° SSE visible
26 Jun - 16:49:25 10° SSW 16:54:26 22° SSE 16:59:41 10° ESE daylight
26 Jun - 18:41:50 10° SW 18:47:39 28° S 18:53:45 10° SE daylight
26 Jun - 20:35:36 10° WSW 20:40:57 22° SSW 20:46:30 10° SSE visible
